EUTELSAT 5 WEST A       
1 27460U 02035A   19261.05424019 -.00000046  00000-0  00000+0 0  9993
2 27460   0.0325 273.3371 0005466 257.8794 200.0233  1.00272022 63049
N-STAR C                
1 27461U 02035B   19260.79525517 -.00000313  00000-0  00000+0 0  9996
2 27461   6.1356  60.3733 0003069  33.1166 325.2690  1.00272310 62958
ARIANE 5 R/B            
1 27462U 02035C   19259.26731728 -.00000214  00000-0 -51810-3 0  9990
2 27462   5.4327 296.2316 7163349  69.4515  19.1315  2.22667547139987
ARIANE 5 DEB [SYLDA]    
1 27463U 02035D   19261.50567437 -.00000147  00000-0 -18188-2 0  9990
2 27463   5.1465 234.6228 7141040 191.8485 283.0342  2.26493678142292